FW2020 Weather Reports


Display with metric or nautical units.
time (UTC)temp
F
wind
direction
speed
MPH
gust
MPH
rain 1hr
in
rain 24hr
in
rain mn
in
humidity
%
barometer
mb
20260503012218 48 0.0 0.0 0.00 0.03 0.03 94 1012.2
20260503011216 49 0.0 0.0 0.00 0.03 0.03 93 1012.2
20260503010230 49 0.0 0.0 0.00 0.03 0.03 93 1011.9
20260503005232 49 0.0 0.0 0.00 0.03 0.03 94 1011.9
20260503004216 49 0.0 0.0 0.00 0.03 0.03 94 1011.8
20260503003219 49 0.0 0.0 0.00 0.03 0.03 92 1011.7
20260503002222 50 0.0 0.0 0.00 0.03 0.03 92 1011.7
20260503001224 50 0.0 0.0 0.00 0.03 0.03 90 1011.7
20260503000226 50 0.0 0.0 0.00 0.03 0.03 91 1011.7
20260502235248 50 0.0 0.0 0.00 0.03 0.03 91 1011.7
20260502234231 51 0.0 0.0 0.00 0.03 0.03 89 1011.7
20260502233215 51 0.0 0.0 0.00 0.03 0.03 88 1011.7
20260502232218 51 0.0 0.0 0.00 0.03 0.03 88 1011.7
20260502231242 51 0.0 0.0 0.00 0.03 0.03 87 1011.7
20260502230224 51 113 2.0 2.0 0.00 0.03 0.03 87 1011.9
20260502225226 52 0.0 0.0 0.00 0.03 0.03 86 1011.8
20260502224243 52 0.0 0.0 0.00 0.03 0.03 86 1011.7
20260502223220 52 0.0 0.0 0.00 0.03 0.03 86 1011.7
20260502222215 52 238 2.0 3.0 0.00 0.03 0.03 85 1011.7
20260502221218 52 158 2.0 3.0 0.00 0.03 0.03 84 1011.7
20260502220220 52 113 2.0 3.0 0.00 0.03 0.03 84 1011.8
20260502215244 52 138 2.0 3.0 0.00 0.03 0.03 83 1011.7
20260502214226 53 180 1.0 2.0 0.00 0.03 0.03 83 1011.7
20260502213228 53 0.0 0.0 0.00 0.03 0.03 83 1011.7
20260502212231 53 90 2.0 2.0 0.00 0.03 0.03 82 1011.7
20260502211220 53 190 3.0 3.0 0.00 0.03 0.03 82 1011.5
20260502210218 53 165 2.0 3.0 0.00 0.03 0.03 82 1011.5
20260502205301 53 90 3.0 4.0 0.00 0.03 0.03 82 1011.7
20260502204223 0 225 4.0 4.0 0.00 0.03 0.03 1011.7
20260502203225 53 68 5.0 6.0 0.00 0.03 0.03 81 1011.8
20260502202228 53 316 4.0 5.0 0.00 0.03 0.03 81 1011.8
20260502201230 54 4.0 4.0 0.00 0.03 0.03 80 1011.9
20260502200247 54 219 3.0 4.0 0.00 0.03 0.03 82 1012.0
20260502195217 53 124 4.0 6.0 0.00 0.03 0.03 83 1012.2
20260502194220 53 113 4.0 4.0 0.00 0.03 0.03 82 1012.2
20260502193256 53 138 3.0 4.0 0.01 0.03 0.03 83 1012.2
20260502192247 53 113 6.0 7.0 0.01 0.03 0.03 82 1012.2
20260502191227 53 270 6.0 6.0 0.01 0.03 0.03 84 1012.4
20260502190231 0 258 5.0 6.0 0.01 0.03 0.03 1012.7
20260502185232 53 113 3.0 3.0 0.01 0.03 0.03 85 1012.7
20260502184216 52 60 4.0 6.0 0.01 0.03 0.03 85 1012.9
20260502183240 52 5.0 6.0 0.00 0.02 0.02 84 1012.9
20260502182221 53 4.0 4.0 0.01 0.02 0.02 85 1012.9
20260502181224 0 158 3.0 3.0 0.01 0.02 0.02 1012.7
20260502180227 52 4.0 4.0 0.02 0.02 0.02 85 1013.0
20260502170226 0 69 4.0 4.0 0.00 0.00 0.00 1013.0
20260502164218 55 270 2.0 3.0 0.00 0.00 0.00 82 1013.2
20260502163233 56 1.0 2.0 0.00 0.00 0.00 78 1013.2
20260502162217 56 68 1.0 2.0 0.00 0.00 0.00 76 1013.2
20260502161220 57 113 4.0 5.0 0.00 0.00 0.00 73 1013.2
20260502160242 58 183 4.0 5.0 0.00 0.00 0.00 73 1013.2
20260502152232 0 203 2.0 2.0 0.00 0.00 0.00 1013.2
20260502151236 60 158 4.0 5.0 0.00 0.00 0.00 66 1013.5
20260502150219 61 113 0.0 1.0 0.00 0.00 0.00 64 1013.5
20260502130233 52 0.0 0.0 0.00 0.00 0.00 82 1014.4
20260502123223 50 2.0 2.0 0.00 0.00 0.00 85 1014.4
20260502122224 50 270 3.0 4.0 0.00 0.00 0.00 84 1014.4
20260502121226 50 203 2.0 2.0 0.00 0.00 0.00 84 1013.9
20260502120230 50 23 4.0 5.0 0.00 0.00 0.00 84 1013.9
20260502115231 50 332 2.0 3.0 0.00 0.00 0.00 85 1013.9
20260502114217 49 158 1.0 3.0 0.00 0.00 0.00 86 1013.7
20260502113218 48 77 2.0 2.0 0.00 0.00 0.00 87 1013.7
20260502112221 48 135 3.0 3.0 0.00 0.00 0.00 88 1013.7
20260502111224 47 0.0 0.0 0.00 0.00 0.00 88 1013.7
20260502110220 47 1.0 2.0 0.00 0.00 0.00 87 1013.7
20260502105217 0 207 1.0 1.0 0.00 0.00 0.00 1013.5
20260502104232 0 0.0 0.0 0.00 0.00 0.00 1013.4
20260502103216 46 175 2.0 2.0 0.00 0.00 0.00 88 1013.4
20260502102219 46 0.0 0.0 0.00 0.00 0.00 88 1013.4
20260502101222 45 0.0 0.0 0.00 0.00 0.00 88 1013.4
20260502100223 45 270 1.0 2.0 0.00 0.00 0.00 87 1013.2
20260502091219 45 0.0 0.0 0.00 0.00 0.00 86 1013.2
20260502090222 45 0.0 0.0 0.00 0.00 0.00 87 1013.0
20260502071231 46 0.0 0.0 0.00 0.00 0.00 78 1012.9
20260502070215 46 0.0 0.0 0.00 0.00 0.00 77 1012.9
20260502065238 47 158 1.0 1.0 0.00 0.00 0.00 76 1013.0
20260502064221 47 0.0 0.0 0.00 0.00 0.00 74 1013.2
20260502063223 48 135 3.0 3.0 0.00 0.00 0.00 73 1013.2
20260502062226 0 152 5.0 6.0 0.00 0.00 0.00 1013.2
20260502061228 49 190 4.0 5.0 0.00 0.00 0.00 70 1013.4
20260502060230 49 205 4.0 5.0 0.00 0.00 0.00 70 1013.4
20260502055215 49 203 3.0 4.0 0.00 0.00 0.00 68 1013.4
20260502054239 49 270 1.0 1.0 0.00 0.00 0.00 68 1013.5
20260502053220 49 135 3.0 4.0 0.00 0.00 0.00 68 1013.5
20260502052222 49 270 2.0 3.0 0.00 0.00 0.00 69 1013.5
20260502051219 48 157 2.0 2.0 0.00 0.00 0.00 69 1013.4
20260502050256 0 172 4.0 4.0 0.00 0.00 0.00 1013.4
20260502045230 49 283 1.0 3.0 0.00 0.00 0.00 70 1013.5
20260502044215 49 221 3.0 4.0 0.00 0.00 0.00 71 1013.5
20260502043217 49 146 4.0 4.0 0.00 0.00 0.00 72 1013.5
20260502042220 48 1.0 3.0 0.00 0.00 0.00 72 1013.5
20260502041222 49 180 2.0 2.0 0.00 0.00 0.00 72 1013.7
20260502040226 48 0.0 0.0 0.00 0.00 0.00 71 1013.7
20260502035222 48 270 2.0 2.0 0.00 0.00 0.00 71 1013.7
20260502034224 48 37 2.0 3.0 0.00 0.00 0.00 72 1013.7
20260502033227 48 270 3.0 3.0 0.00 0.00 0.00 72 1013.7
20260502032229 48 0.0 0.0 0.00 0.00 0.00 72 1013.7
20260502031232 48 293 1.0 2.0 0.00 0.00 0.00 72 1013.7
20260502030216 48 0.0 0.0 0.00 0.00 0.00 71 1013.5
20260502025239 48 0.0 1.0 0.00 0.00 0.00 70 1013.5
20260502024223 48 0.0 0.0 0.00 0.00 0.00 69 1013.5
20260502023224 0 291 1.0 1.0 0.00 0.00 0.00 1013.4
20260502022220 49 338 2.0 2.0 0.00 0.00 0.00 67 1013.4
20260502021217 49 225 1.0 2.0 0.00 0.00 0.00 64 1013.5
20260502020253 50 0.0 0.0 0.00 0.00 0.00 62 1013.5
20260502015216 51 0.0 0.0 0.00 0.00 0.00 60 1013.4
20260502014218 51 129 2.0 3.0 0.00 0.00 0.00 58 1013.2
20260502013222 51 225 1.0 2.0 0.00 0.00 0.00 58 1013.2